PDT5974 KPHL-KART

Flight info

Callsign PDT5974
Flight time 0h 51m
Altitude 25000
Route PTW CHLSE/N0318F170 V499 CFB V29 SYR
Aircraft E145/M-SABDFGRW/S

Departure

Time 2026-05-05 22:12
Airport Philadelphia International Airport (KPHL)

Arrival

Time 2026-05-05 23:03
Airport Watertown International Airport (KART)
Time Latitude Longitude Altitude Speed Heading
2026-05-05 21:35 39.88141 -75.23775 17 ft 0 kts 104°
2026-05-05 22:00 39.88141 -75.23774 17 ft 0 kts 104°
2026-05-05 22:00 39.88144 -75.23792 17 ft 2 kts 104°
2026-05-05 22:00 39.88147 -75.23809 17 ft 0 kts 104°
2026-05-05 22:01 39.88150 -75.23825 17 ft 2 kts 104°
2026-05-05 22:01 39.88154 -75.23842 17 ft 0 kts 104°
2026-05-05 22:01 39.88154 -75.23843 17 ft 0 kts 104°
2026-05-05 22:04 39.88153 -75.23836 17 ft 1 kts 97°
2026-05-05 22:04 39.88163 -75.23826 17 ft 3 kts 22°
2026-05-05 22:04 39.88195 -75.23813 17 ft 6 kts 12°
2026-05-05 22:05 39.88248 -75.23799 17 ft 8 kts 12°
2026-05-05 22:05 39.88301 -75.23753 17 ft 10 kts 74°
2026-05-05 22:05 39.88319 -75.23648 17 ft 12 kts 102°
2026-05-05 22:05 39.88251 -75.23589 17 ft 12 kts 159°
2026-05-05 22:06 39.88170 -75.23548 17 ft 12 kts 160°
2026-05-05 22:06 39.88092 -75.23511 17 ft 11 kts 160°
2026-05-05 22:06 39.88013 -75.23471 17 ft 12 kts 159°
2026-05-05 22:06 39.87925 -75.23441 17 ft 13 kts 187°
2026-05-05 22:07 39.87837 -75.23428 17 ft 13 kts 157°
2026-05-05 22:07 39.87750 -75.23386 17 ft 13 kts 159°
2026-05-05 22:07 39.87658 -75.23339 18 ft 14 kts 159°
2026-05-05 22:07 39.87564 -75.23293 18 ft 14 kts 159°
2026-05-05 22:08 39.87470 -75.23246 18 ft 14 kts 160°
2026-05-05 22:08 39.87373 -75.23198 18 ft 15 kts 158°
2026-05-05 22:08 39.87271 -75.23149 18 ft 15 kts 159°
2026-05-05 22:08 39.87170 -75.23099 18 ft 11 kts 168°
2026-05-05 22:09 39.87120 -75.23167 18 ft 11 kts 223°
2026-05-05 22:09 39.87065 -75.23245 18 ft 12 kts 240°
2026-05-05 22:09 39.87026 -75.23347 18 ft 13 kts 246°
2026-05-05 22:09 39.86974 -75.23420 18 ft 12 kts 174°
2026-05-05 22:10 39.86901 -75.23414 18 ft 8 kts 216°
2026-05-05 22:10 39.86891 -75.23460 18 ft 0 kts 259°
2026-05-05 22:10 39.86891 -75.23462 18 ft 0 kts 259°
2026-05-05 22:11 39.86877 -75.23537 18 ft 30 kts 254°
2026-05-05 22:11 39.86765 -75.24107 19 ft 97 kts 253°
2026-05-05 22:11 39.86551 -75.25177 40 ft 141 kts 251°
2026-05-05 22:11 39.86302 -75.26480 341 ft 156 kts 253°
2026-05-05 22:12 39.86150 -75.27912 905 ft 166 kts 261°
2026-05-05 22:12 39.86131 -75.29439 1460 ft 176 kts 262°
2026-05-05 22:12 39.86102 -75.31084 1838 ft 197 kts 263°
2026-05-05 22:12 39.86592 -75.32951 2000 ft 239 kts 300°
2026-05-05 22:13 39.87991 -75.34264 2376 ft 265 kts 334°
2026-05-05 22:13 39.89857 -75.34727 2757 ft 280 kts 341°
2026-05-05 22:13 39.91720 -75.35464 3490 ft 276 kts 333°
2026-05-05 22:13 39.93438 -75.36464 4358 ft 269 kts 327°
2026-05-05 22:14 39.95114 -75.37564 5082 ft 270 kts 326°
2026-05-05 22:14 39.96766 -75.38676 5736 ft 272 kts 326°
2026-05-05 22:14 39.98444 -75.39813 6457 ft 272 kts 325°
2026-05-05 22:14 40.00108 -75.40943 7166 ft 272 kts 325°
2026-05-05 22:15 40.01801 -75.42094 7868 ft 272 kts 325°
2026-05-05 22:15 40.03461 -75.43221 8553 ft 272 kts 325°
2026-05-05 22:15 40.05122 -75.44351 9221 ft 272 kts 325°
2026-05-05 22:15 40.06809 -75.45499 9896 ft 271 kts 325°
2026-05-05 22:16 40.08479 -75.46638 10496 ft 273 kts 326°
2026-05-05 22:16 40.10150 -75.47776 11036 ft 277 kts 326°
2026-05-05 22:16 40.11939 -75.49000 11057 ft 300 kts 326°
2026-05-05 22:16 40.13845 -75.50298 11269 ft 314 kts 326°
2026-05-05 22:17 40.15779 -75.51616 11862 ft 314 kts 327°
2026-05-05 22:17 40.17722 -75.52943 12456 ft 313 kts 327°
2026-05-05 22:17 40.19664 -75.54271 12953 ft 316 kts 327°
2026-05-05 22:17 40.21601 -75.55615 13440 ft 316 kts 323°
2026-05-05 22:18 40.23219 -75.57509 13875 ft 309 kts 306°
2026-05-05 22:18 40.24626 -75.59629 14348 ft 311 kts 307°
2026-05-05 22:18 40.26067 -75.61793 14797 ft 314 kts 307°
2026-05-05 22:18 40.27499 -75.63944 15235 ft 317 kts 307°
2026-05-05 22:19 40.28963 -75.66145 15659 ft 320 kts 306°
2026-05-05 22:19 40.30430 -75.68355 16097 ft 322 kts 306°
2026-05-05 22:19 40.31903 -75.70576 16481 ft 326 kts 306°
2026-05-05 22:19 40.33376 -75.72796 16938 ft 326 kts 306°
2026-05-05 22:20 40.34879 -75.75066 17356 ft 329 kts 306°
2026-05-05 22:20 40.36373 -75.77321 17754 ft 331 kts 306°
2026-05-05 22:20 40.37885 -75.79607 18144 ft 333 kts 306°
2026-05-05 22:20 40.39409 -75.81911 18548 ft 336 kts 306°
2026-05-05 22:21 40.40947 -75.84241 18910 ft 339 kts 306°
2026-05-05 22:21 40.42475 -75.86556 19288 ft 341 kts 306°
2026-05-05 22:21 40.44048 -75.88941 19673 ft 343 kts 306°
2026-05-05 22:21 40.45604 -75.91302 19970 ft 347 kts 306°
2026-05-05 22:22 40.47205 -75.93733 20322 ft 349 kts 306°
2026-05-05 22:22 40.48777 -75.96122 20741 ft 350 kts 306°
2026-05-05 22:22 40.50382 -75.98563 20993 ft 355 kts 306°
2026-05-05 22:22 40.52019 -76.01056 21382 ft 356 kts 306°
2026-05-05 22:23 40.53645 -76.03532 21725 ft 358 kts 306°
2026-05-05 22:23 40.55277 -76.06020 22091 ft 359 kts 307°
2026-05-05 22:23 40.56916 -76.08521 22422 ft 361 kts 307°
2026-05-05 22:23 40.58553 -76.11021 22748 ft 363 kts 307°
2026-05-05 22:24 40.60224 -76.13576 23068 ft 366 kts 307°
2026-05-05 22:24 40.61900 -76.16139 23349 ft 369 kts 307°
2026-05-05 22:24 40.63567 -76.18692 23655 ft 371 kts 307°
2026-05-05 22:24 40.65258 -76.21282 23878 ft 375 kts 307°
2026-05-05 22:25 40.67266 -76.23611 23888 ft 392 kts 325°
2026-05-05 22:25 40.69846 -76.24925 23901 ft 411 kts 345°
2026-05-05 22:25 40.72765 -76.25024 23899 ft 428 kts
2026-05-05 22:25 40.75744 -76.24507 23898 ft 434 kts
2026-05-05 22:26 40.78808 -76.24194 23892 ft 437 kts
2026-05-05 22:26 40.81831 -76.23942 23887 ft 438 kts 360°
2026-05-05 22:26 40.84888 -76.23703 23886 ft 439 kts 359°
2026-05-05 22:26 40.87947 -76.23471 23887 ft 440 kts 359°
2026-05-05 22:27 40.91028 -76.23238 23887 ft 441 kts 359°
2026-05-05 22:27 40.94069 -76.23009 23895 ft 441 kts 359°
2026-05-05 22:27 40.97153 -76.22774 23880 ft 441 kts 360°
2026-05-05 22:27 41.00201 -76.22544 23876 ft 439 kts 360°
2026-05-05 22:28 41.03266 -76.22311 23881 ft 437 kts 359°
2026-05-05 22:28 41.06277 -76.22084 23877 ft 435 kts 359°
2026-05-05 22:28 41.09295 -76.21854 23874 ft 434 kts 360°
2026-05-05 22:28 41.12347 -76.21622 23872 ft 432 kts 359°
2026-05-05 22:29 41.15344 -76.21394 23873 ft 431 kts 359°
2026-05-05 22:29 41.18327 -76.21168 23863 ft 430 kts 359°
2026-05-05 22:29 41.21314 -76.20942 23865 ft 429 kts 359°
2026-05-05 22:29 41.24281 -76.20717 23855 ft 428 kts 359°
2026-05-05 22:30 41.27270 -76.20489 23853 ft 427 kts 359°
2026-05-05 22:30 41.30213 -76.20264 23852 ft 427 kts 359°
2026-05-05 22:30 41.33202 -76.20036 23852 ft 426 kts 359°
2026-05-05 22:30 41.36172 -76.19809 23853 ft 426 kts 359°
2026-05-05 22:31 41.39093 -76.19585 23855 ft 425 kts 359°
2026-05-05 22:31 41.42041 -76.19360 23857 ft 425 kts 359°
2026-05-05 22:31 41.45012 -76.19132 23853 ft 424 kts 358°
2026-05-05 22:31 41.47935 -76.18908 23857 ft 424 kts 359°
2026-05-05 22:32 41.50896 -76.18681 23864 ft 424 kts 359°
2026-05-05 22:32 41.53824 -76.18456 23860 ft 425 kts 358°
2026-05-05 22:32 41.56809 -76.18226 23855 ft 426 kts 358°
2026-05-05 22:32 41.59758 -76.17999 23853 ft 427 kts 359°
2026-05-05 22:33 41.62723 -76.17770 23852 ft 427 kts 359°
2026-05-05 22:33 41.65704 -76.17540 23855 ft 428 kts 359°
2026-05-05 22:33 41.68677 -76.17312 23851 ft 429 kts 359°
2026-05-05 22:33 41.71619 -76.17084 23848 ft 429 kts 358°
2026-05-05 22:34 41.74618 -76.16852 23843 ft 430 kts 359°
2026-05-05 22:34 41.77618 -76.16620 23844 ft 431 kts 359°
2026-05-05 22:34 41.80616 -76.16387 23840 ft 431 kts 358°
2026-05-05 22:34 41.83607 -76.16155 23843 ft 431 kts 358°
2026-05-05 22:35 41.86626 -76.15921 23837 ft 432 kts 358°
2026-05-05 22:35 41.89632 -76.15687 23842 ft 432 kts 358°
2026-05-05 22:35 41.92653 -76.15453 23836 ft 433 kts 358°
2026-05-05 22:35 41.95633 -76.15221 23835 ft 433 kts 358°
2026-05-05 22:36 41.98653 -76.14984 23835 ft 434 kts 358°
2026-05-05 22:36 42.01654 -76.14751 23825 ft 434 kts 358°
2026-05-05 22:36 42.04669 -76.14515 23831 ft 434 kts 358°
2026-05-05 22:36 42.07707 -76.14278 23829 ft 435 kts 358°
2026-05-05 22:37 42.10698 -76.14043 23830 ft 435 kts 358°
2026-05-05 22:37 42.13739 -76.13805 23823 ft 435 kts 358°
2026-05-05 22:37 42.16744 -76.13657 23818 ft 431 kts 352°
2026-05-05 22:37 42.19751 -76.13561 23819 ft 438 kts
2026-05-05 22:38 42.22746 -76.12942 23826 ft 436 kts
2026-05-05 22:38 42.25777 -76.12520 23827 ft 435 kts
2026-05-05 22:38 42.28811 -76.12146 23828 ft 435 kts
2026-05-05 22:38 42.31813 -76.11790 23825 ft 436 kts 359°
2026-05-05 22:39 42.34858 -76.11436 23827 ft 436 kts 360°
2026-05-05 22:39 42.37846 -76.11087 23826 ft 436 kts 359°
2026-05-05 22:39 42.40876 -76.10735 23826 ft 436 kts 359°
2026-05-05 22:39 42.43929 -76.10379 23828 ft 436 kts 359°
2026-05-05 22:40 42.46949 -76.10028 23828 ft 437 kts 360°
2026-05-05 22:40 42.49991 -76.09673 23826 ft 437 kts 359°
2026-05-05 22:40 42.53017 -76.09319 23825 ft 437 kts 359°
2026-05-05 22:40 42.56050 -76.08965 23828 ft 437 kts 359°
2026-05-05 22:41 42.59048 -76.08614 23822 ft 437 kts 359°
2026-05-05 22:41 42.62110 -76.08255 23819 ft 437 kts 359°
2026-05-05 22:41 42.65142 -76.07900 23822 ft 437 kts 359°
2026-05-05 22:41 42.68176 -76.07876 23810 ft 427 kts 346°
2026-05-05 22:42 42.71067 -76.08602 23824 ft 424 kts 343°
2026-05-05 22:42 42.73947 -76.09353 23816 ft 424 kts 342°
2026-05-05 22:42 42.76836 -76.10111 23809 ft 426 kts 346°
2026-05-05 22:42 42.79833 -76.10087 23749 ft 433 kts 359°
2026-05-05 22:43 42.82800 -76.09778 23212 ft 419 kts 358°
2026-05-05 22:43 42.85672 -76.09494 22691 ft 412 kts 358°
2026-05-05 22:43 42.88535 -76.09212 22173 ft 407 kts 358°
2026-05-05 22:43 42.91352 -76.08935 21660 ft 402 kts 358°
2026-05-05 22:44 42.94128 -76.08664 21150 ft 398 kts 358°
2026-05-05 22:44 42.96859 -76.08395 20604 ft 394 kts 358°
2026-05-05 22:44 42.99612 -76.08126 19956 ft 394 kts 358°
2026-05-05 22:44 43.02315 -76.07860 19347 ft 394 kts 358°
2026-05-05 22:45 43.05068 -76.07589 18718 ft 393 kts 357°
2026-05-05 22:45 43.07789 -76.07320 18083 ft 392 kts 357°
2026-05-05 22:45 43.10510 -76.07052 17475 ft 391 kts 357°
2026-05-05 22:45 43.13240 -76.06782 16858 ft 390 kts 357°
2026-05-05 22:46 43.15937 -76.06516 16244 ft 388 kts 357°
2026-05-05 22:46 43.18628 -76.06249 15630 ft 386 kts 357°
2026-05-05 22:46 43.21311 -76.05984 15050 ft 384 kts 357°
2026-05-05 22:46 43.23932 -76.05723 14585 ft 379 kts 357°
2026-05-05 22:47 43.26575 -76.05460 14047 ft 376 kts 357°
2026-05-05 22:47 43.29157 -76.05205 13438 ft 374 kts 357°
2026-05-05 22:47 43.31778 -76.04945 12829 ft 373 kts 356°
2026-05-05 22:47 43.34341 -76.04690 12237 ft 372 kts 357°
2026-05-05 22:48 43.36927 -76.04433 11623 ft 371 kts 357°
2026-05-05 22:48 43.39523 -76.04175 11015 ft 369 kts 357°
2026-05-05 22:48 43.42077 -76.03920 10413 ft 367 kts 358°
2026-05-05 22:48 43.44544 -76.03669 10328 ft 344 kts 357°
2026-05-05 22:49 43.46869 -76.03434 10317 ft 321 kts 356°
2026-05-05 22:49 43.49049 -76.03218 10033 ft 312 kts 356°
2026-05-05 22:49 43.51205 -76.03007 9498 ft 312 kts 356°
2026-05-05 22:49 43.53373 -76.02792 9014 ft 310 kts 357°
2026-05-05 22:50 43.55541 -76.02573 8579 ft 306 kts 356°
2026-05-05 22:50 43.57664 -76.02362 8100 ft 304 kts 357°
2026-05-05 22:50 43.59749 -76.02152 7681 ft 301 kts 357°
2026-05-05 22:50 43.61826 -76.01943 7341 ft 295 kts 357°
2026-05-05 22:51 43.63881 -76.01737 6962 ft 291 kts 357°
2026-05-05 22:51 43.65873 -76.01537 6560 ft 289 kts 358°
2026-05-05 22:51 43.67871 -76.01336 6142 ft 286 kts 357°
2026-05-05 22:51 43.69820 -76.00761 5746 ft 293 kts 21°
2026-05-05 22:52 43.71425 -75.98994 5407 ft 295 kts 50°
2026-05-05 22:52 43.72409 -75.96521 5018 ft 293 kts 62°
2026-05-05 22:52 43.73379 -75.94061 4640 ft 290 kts 59°
2026-05-05 22:52 43.74356 -75.91643 4329 ft 285 kts 59°
2026-05-05 22:53 43.75327 -75.89248 3965 ft 282 kts 59°
2026-05-05 22:53 43.76272 -75.86916 3648 ft 277 kts 58°
2026-05-05 22:53 43.77203 -75.84620 3622 ft 272 kts 57°
2026-05-05 22:53 43.78126 -75.82342 3608 ft 269 kts 58°
2026-05-05 22:54 43.79026 -75.80119 3607 ft 264 kts 58°
2026-05-05 22:54 43.79913 -75.77924 3599 ft 257 kts 57°
2026-05-05 22:54 43.80776 -75.75785 3595 ft 251 kts 57°
2026-05-05 22:54 43.81623 -75.73691 3607 ft 245 kts 57°
2026-05-05 22:55 43.82471 -75.71653 3593 ft 239 kts 49°
2026-05-05 22:55 43.83714 -75.70331 3616 ft 219 kts 12°
2026-05-05 22:55 43.85173 -75.70192 3606 ft 202 kts 345°
2026-05-05 22:55 43.86545 -75.70551 3602 ft 198 kts 341°
2026-05-05 22:56 43.87870 -75.70980 3596 ft 194 kts 340°
2026-05-05 22:56 43.89186 -75.71437 3596 ft 190 kts 339°
2026-05-05 22:56 43.90456 -75.71888 3597 ft 187 kts 339°
2026-05-05 22:56 43.91708 -75.72337 3596 ft 183 kts 339°
2026-05-05 22:57 43.92942 -75.72782 3513 ft 184 kts 339°
2026-05-05 22:57 43.94181 -75.73228 3506 ft 181 kts 339°
2026-05-05 22:57 43.95408 -75.73670 3500 ft 181 kts 339°
2026-05-05 22:57 43.96639 -75.74116 3505 ft 184 kts 339°
2026-05-05 22:58 43.97743 -75.74884 3516 ft 175 kts 306°
2026-05-05 22:58 43.98157 -75.76402 3498 ft 170 kts 275°
2026-05-05 22:58 43.98247 -75.78048 3452 ft 171 kts 275°
2026-05-05 22:58 43.98326 -75.79699 3310 ft 170 kts 274°
2026-05-05 22:59 43.98394 -75.81328 2990 ft 168 kts 274°
2026-05-05 22:59 43.98460 -75.82958 2653 ft 170 kts 274°
2026-05-05 22:59 43.98526 -75.84617 2321 ft 171 kts 274°
2026-05-05 22:59 43.98586 -75.86192 2267 ft 151 kts 274°
2026-05-05 23:00 43.98672 -75.88720 1839 ft 124 kts 275°
2026-05-05 23:00 43.98719 -75.89910 1446 ft 125 kts 274°
2026-05-05 23:00 43.98765 -75.91071 1265 ft 110 kts 273°
2026-05-05 23:01 43.98803 -75.92046 1160 ft 95 kts 272°
2026-05-05 23:01 43.98840 -75.93111 1087 ft 121 kts 273°
2026-05-05 23:01 43.98885 -75.94295 1206 ft 124 kts 274°
2026-05-05 23:01 43.98936 -75.95503 1200 ft 127 kts 274°
2026-05-05 23:02 43.98992 -75.96724 977 ft 123 kts 274°
2026-05-05 23:02 43.99040 -75.97889 714 ft 120 kts 272°
2026-05-05 23:02 43.99081 -75.99129 560 ft 136 kts 271°
2026-05-05 23:02 43.99131 -76.00462 373 ft 135 kts 271°
2026-05-05 23:03 43.99173 -76.01631 324 ft 101 kts 273°
2026-05-05 23:03 43.99197 -76.02228 319 ft 36 kts 272°
2026-05-05 23:03 43.99209 -76.02567 315 ft 35 kts 272°
2026-05-05 23:03 43.99227 -76.02808 311 ft 8 kts 308°
2026-05-05 23:04 43.99294 -76.02821 311 ft 10 kts
2026-05-05 23:04 43.99325 -76.02753 312 ft 0 kts 93°
2026-05-05 23:04 43.99325 -76.02750 312 ft 0 kts 93°
2026-05-05 23:04 43.99325 -76.02742 312 ft 1 kts 93°
2026-05-05 23:05 43.99324 -76.02723 312 ft 3 kts 94°
2026-05-05 23:05 43.99323 -76.02683 313 ft 5 kts 92°
2026-05-05 23:05 43.99321 -76.02599 314 ft 10 kts 80°
2026-05-05 23:05 43.99346 -76.02539 315 ft 8 kts 10°
2026-05-05 23:06 43.99375 -76.02472 317 ft 9 kts 91°
2026-05-05 23:06 43.99374 -76.02394 318 ft 4 kts 92°
2026-05-05 23:06 43.99373 -76.02364 318 ft 0 kts 93°